| time (UTC) | temp F | wind direction | speed MPH | gust MPH | rain 1hr in | rain 24hr in | rain mn in | humidity % | barometer mb |
| 20260504023111 | 72 | 127 | 5.0 | 7.0 | 0.00 | 0.00 | 0.00 | 56 | 1018.5 |
| 20260504022655 | 72 | 124 | 3.0 | 7.0 | 0.00 | 0.00 | 0.00 | 58 | 1018.4 |
| 20260504022147 | 73 | 180 | 5.0 | 6.0 | 0.00 | 0.00 | 0.00 | 59 | 1018.4 |
| 20260504021205 | 72 | 180 | 5.0 | 6.0 | 0.00 | 0.00 | 0.00 | 56 | 1018.4 |
| 20260504020703 | 73 | 188 | 5.0 | 6.0 | 0.00 | 0.00 | 0.00 | 57 | 1018.5 |
| 20260504015624 | 73 | 195 | 5.0 | 7.0 | 0.00 | 0.00 | 0.00 | 58 | 1018.3 |
| 20260504015144 | 73 | 182 | 5.0 | 7.0 | 0.00 | 0.00 | 0.00 | 58 | 1018.2 |
| 20260504014206 | 73 | 182 | 6.0 | 8.0 | 0.00 | 0.00 | 0.00 | 57 | 1018.2 |
| 20260504013645 | 74 | 190 | 6.0 | 8.0 | 0.00 | 0.00 | 0.00 | 57 | 1018.1 |
| 20260504013125 | 74 | 184 | 6.0 | 9.0 | 0.00 | 0.00 | 0.00 | 58 | 1018.1 |
| 20260504012621 | 74 | 181 | 7.0 | 11.0 | 0.00 | 0.00 | 0.00 | 54 | 1018.2 |
| 20260504012135 | 74 | 170 | 9.0 | 13.0 | 0.00 | 0.00 | 0.00 | 53 | 1018.2 |
| 20260504011720 | 74 | 168 | 9.0 | 13.0 | 0.00 | 0.00 | 0.00 | 55 | 1018.0 |
| 20260504011155 | 74 | 172 | 9.0 | 11.0 | 0.00 | 0.00 | 0.00 | 53 | 1018.1 |
| 20260504010653 | 74 | 178 | 8.0 | 11.0 | 0.00 | 0.00 | 0.00 | 55 | 1018.0 |
| 20260504010152 | 74 | 174 | 9.0 | 13.0 | 0.00 | 0.00 | 0.00 | 53 | 1018.0 |
| 20260504005648 | 74 | 167 | 11.0 | 13.0 | 0.00 | 0.00 | 0.00 | 53 | 1017.9 |
| 20260504005141 | 75 | 176 | 9.0 | 13.0 | 0.00 | 0.00 | 0.00 | 53 | 1017.9 |
| 20260504004615 | 75 | 153 | 10.0 | 13.0 | 0.00 | 0.00 | 0.00 | 55 | 1017.8 |
| 20260504004218 | 75 | 168 | 9.0 | 12.0 | 0.00 | 0.00 | 0.00 | 54 | 1017.9 |
| 20260504003712 | 75 | 172 | 11.0 | 13.0 | 0.00 | 0.00 | 0.00 | 54 | 1018.0 |
| 20260504003145 | 75 | 169 | 10.0 | 13.0 | 0.00 | 0.00 | 0.00 | 54 | 1018.0 |
| 20260504002640 | 75 | 177 | 8.0 | 14.0 | 0.00 | 0.00 | 0.00 | 53 | 1018.2 |
| 20260504002136 | 75 | 184 | 11.0 | 14.0 | 0.00 | 0.00 | 0.00 | 51 | 1018.2 |
| 20260504001652 | 75 | 178 | 10.0 | 13.0 | 0.00 | 0.00 | 0.00 | 52 | 1018.3 |
| 20260504001203 | 75 | 174 | 10.0 | 14.0 | 0.00 | 0.00 | 0.00 | 52 | 1018.4 |
| 20260504000656 | 75 | 184 | 11.0 | 15.0 | 0.00 | 0.00 | 0.00 | 52 | 1018.4 |
| 20260504000209 | 75 | 167 | 10.0 | 15.0 | 0.00 | 0.00 | 0.00 | 51 | 1018.6 |
| 20260503235703 | 75 | 171 | 10.0 | 14.0 | 0.00 | 0.00 | 0.00 | 50 | 1018.6 |
| 20260503235156 | 75 | 179 | 11.0 | 13.0 | 0.00 | 0.00 | 0.00 | 49 | 1018.6 |
| 20260503234643 | 75 | 179 | 11.0 | 15.0 | 0.00 | 0.00 | 0.00 | 53 | 1018.5 |
| 20260503233710 | 75 | 202 | 13.0 | 18.0 | 0.00 | 0.00 | 0.00 | 52 | 1018.6 |
| 20260503233204 | 75 | 184 | 10.0 | 15.0 | 0.00 | 0.00 | 0.00 | 53 | 1018.8 |
| 20260503232659 | 75 | 163 | 11.0 | 15.0 | 0.00 | 0.00 | 0.00 | 51 | 1018.7 |
| 20260503232146 | 75 | 182 | 10.0 | 16.0 | 0.00 | 0.00 | 0.00 | 51 | 1018.8 |
| 20260503231209 | 75 | 174 | 10.0 | 14.0 | 0.00 | 0.00 | 0.00 | 52 | 1018.6 |
| 20260503230701 | 75 | 168 | 9.0 | 14.0 | 0.00 | 0.00 | 0.00 | 49 | 1018.7 |
| 20260503230156 | 75 | 191 | 11.0 | 18.0 | 0.00 | 0.00 | 0.00 | 52 | 1018.6 |
| 20260503225705 | 75 | 184 | 10.0 | 18.0 | 0.00 | 0.00 | 0.00 | 51 | 1018.6 |
| 20260503225158 | 75 | 195 | 8.0 | 14.0 | 0.00 | 0.00 | 0.00 | 54 | 1018.6 |
| 20260503224637 | 75 | 166 | 8.0 | 16.0 | 0.00 | 0.00 | 0.00 | 52 | 1018.7 |
| 20260503224222 | 75 | 172 | 12.0 | 19.0 | 0.00 | 0.00 | 0.00 | 51 | 1018.6 |
| 20260503223658 | 75 | 180 | 12.0 | 19.0 | 0.00 | 0.00 | 0.00 | 53 | 1018.8 |
| 20260503223200 | 75 | 163 | 10.0 | 18.0 | 0.00 | 0.00 | 0.00 | 51 | 1018.8 |
| 20260503222654 | 75 | 166 | 12.0 | 18.0 | 0.00 | 0.00 | 0.00 | 53 | 1018.9 |
| 20260503222146 | 75 | 181 | 9.0 | 19.0 | 0.00 | 0.00 | 0.00 | 51 | 1018.9 |
| 20260503221645 | 75 | 192 | 11.0 | 19.0 | 0.00 | 0.00 | 0.00 | 51 | 1019.1 |
| 20260503221137 | 75 | 175 | 8.0 | 20.0 | 0.00 | 0.00 | 0.00 | 52 | 1019.2 |
| 20260503220632 | 75 | 190 | 10.0 | 20.0 | 0.00 | 0.00 | 0.00 | 50 | 1019.2 |
| 20260503220224 | 75 | 193 | 9.0 | 16.0 | 0.00 | 0.00 | 0.00 | 51 | 1019.3 |
| 20260503215704 | 75 | 201 | 11.0 | 16.0 | 0.00 | 0.00 | 0.00 | 52 | 1019.4 |
| 20260503215202 | 75 | 177 | 7.0 | 13.0 | 0.00 | 0.00 | 0.00 | 50 | 1019.5 |
| 20260503214701 | 75 | 192 | 10.0 | 18.0 | 0.00 | 0.00 | 0.00 | 49 | 1019.5 |
| 20260503214200 | 75 | 187 | 11.0 | 18.0 | 0.00 | 0.00 | 0.00 | 49 | 1019.6 |
| 20260503213656 | 75 | 186 | 10.0 | 14.0 | 0.00 | 0.00 | 0.00 | 51 | 1019.6 |
| 20260503213203 | 75 | 158 | 7.0 | 14.0 | 0.00 | 0.00 | 0.00 | 50 | 1019.6 |
| 20260503212612 | 75 | 182 | 12.0 | 14.0 | 0.00 | 0.00 | 0.00 | 52 | 1019.7 |
| 20260503212157 | 75 | 180 | 8.0 | 16.0 | 0.00 | 0.00 | 0.00 | 51 | 1019.7 |
| 20260503211700 | 75 | 198 | 11.0 | 16.0 | 0.00 | 0.00 | 0.00 | 52 | 1019.9 |
| 20260503211213 | 75 | 197 | 8.0 | 12.0 | 0.00 | 0.00 | 0.00 | 52 | 1020.1 |
| 20260503210651 | 75 | 157 | 9.0 | 13.0 | 0.00 | 0.00 | 0.00 | 53 | 1020.4 |
| 20260503210150 | 74 | 208 | 9.0 | 14.0 | 0.00 | 0.00 | 0.00 | 51 | 1020.4 |
| 20260503205648 | 74 | 173 | 12.0 | 14.0 | 0.00 | 0.00 | 0.00 | 53 | 1020.6 |
| 20260503205127 | 74 | 180 | 6.0 | 16.0 | 0.00 | 0.00 | 0.00 | 50 | 1020.8 |
| 20260503204620 | 74 | 139 | 12.0 | 16.0 | 0.00 | 0.00 | 0.00 | 50 | 1020.7 |
| 20260503204113 | 74 | 153 | 10.0 | 16.0 | 0.00 | 0.00 | 0.00 | 48 | 1020.7 |
| 20260503203714 | 74 | 161 | 7.0 | 13.0 | 0.00 | 0.00 | 0.00 | 51 | 1020.9 |
| 20260503203129 | 74 | 198 | 8.0 | 14.0 | 0.00 | 0.00 | 0.00 | 52 | 1021.0 |
| 20260503202626 | 74 | 184 | 5.0 | 12.0 | 0.00 | 0.00 | 0.00 | 51 | 1021.0 |
| 20260503202228 | 74 | 206 | 2.0 | 8.0 | 0.00 | 0.00 | 0.00 | 52 | 1021.1 |
| 20260503201705 | 74 | 169 | 3.0 | 12.0 | 0.00 | 0.00 | 0.00 | 52 | 1021.4 |
| 20260503201144 | 74 | 161 | 8.0 | 15.0 | 0.00 | 0.00 | 0.00 | 53 | 1021.5 |
| 20260503200640 | 74 | 164 | 11.0 | 15.0 | 0.00 | 0.00 | 0.00 | 51 | 1021.4 |
| 20260503195727 | 74 | 159 | 11.0 | 16.0 | 0.00 | 0.00 | 0.00 | 50 | 1021.5 |
| 20260503195123 | 73 | 165 | 10.0 | 14.0 | 0.00 | 0.00 | 0.00 | 53 | 1021.8 |
| 20260503194624 | 73 | 226 | 10.0 | 14.0 | 0.00 | 0.00 | 0.00 | 51 | 1021.7 |
| 20260503194210 | 73 | 213 | 9.0 | 14.0 | 0.00 | 0.00 | 0.00 | 52 | 1021.8 |
| 20260503193620 | 73 | 168 | 10.0 | 16.0 | 0.00 | 0.00 | 0.00 | 51 | 1021.8 |
| 20260503193202 | 73 | 156 | 12.0 | 16.0 | 0.00 | 0.00 | 0.00 | 51 | 1021.8 |
| 20260503192657 | 73 | 209 | 5.0 | 18.0 | 0.00 | 0.00 | 0.00 | 50 | 1021.7 |
| 20260503192157 | 73 | 195 | 10.0 | 19.0 | 0.00 | 0.00 | 0.00 | 52 | 1022.0 |
| 20260503191652 | 73 | 193 | 12.0 | 19.0 | 0.00 | 0.00 | 0.00 | 54 | 1021.9 |
| 20260503191146 | 73 | 202 | 6.0 | 13.0 | 0.00 | 0.00 | 0.00 | 52 | 1022.1 |
| 20260503190637 | 73 | 195 | 7.0 | 16.0 | 0.00 | 0.00 | 0.00 | 56 | 1022.0 |
| 20260503190153 | 73 | 140 | 11.0 | 16.0 | 0.00 | 0.00 | 0.00 | 54 | 1022.2 |
| 20260503185647 | 73 | 168 | 9.0 | 14.0 | 0.00 | 0.00 | 0.00 | 54 | 1022.0 |
| 20260503185144 | 73 | 194 | 11.0 | 14.0 | 0.00 | 0.00 | 0.00 | 52 | 1022.2 |
| 20260503184657 | 72 | 178 | 8.0 | 16.0 | 0.00 | 0.00 | 0.00 | 53 | 1022.5 |
| 20260503184157 | 72 | 202 | 13.0 | 16.0 | 0.00 | 0.00 | 0.00 | 51 | 1022.6 |
| 20260503183655 | 72 | 177 | 12.0 | 16.0 | 0.00 | 0.00 | 0.00 | 56 | 1022.7 |
| 20260503183156 | 72 | 177 | 7.0 | 20.0 | 0.00 | 0.00 | 0.00 | 54 | 1022.7 |
| 20260503182717 | 72 | 195 | 12.0 | 19.0 | 0.00 | 0.00 | 0.00 | 56 | 1022.8 |
| 20260503182154 | 72 | 158 | 12.0 | 19.0 | 0.00 | 0.00 | 0.00 | 54 | 1022.9 |
| 20260503181649 | 72 | 190 | 9.0 | 14.0 | 0.00 | 0.00 | 0.00 | 55 | 1022.9 |
| 20260503181145 | 72 | 193 | 11.0 | 15.0 | 0.00 | 0.00 | 0.00 | 54 | 1023.0 |
| 20260503180700 | 72 | 149 | 7.0 | 18.0 | 0.00 | 0.00 | 0.00 | 54 | 1023.0 |
| 20260503180200 | 72 | 171 | 12.0 | 18.0 | 0.00 | 0.00 | 0.00 | 56 | 1023.1 |
| 20260503175700 | 72 | 169 | 11.0 | 16.0 | 0.00 | 0.00 | 0.00 | 55 | 1023.2 |
| 20260503175134 | 72 | 176 | 9.0 | 18.0 | 0.00 | 0.00 | 0.00 | 54 | 1023.3 |
| 20260503174648 | 72 | 197 | 12.0 | 18.0 | 0.00 | 0.00 | 0.00 | 53 | 1023.2 |
| 20260503174143 | 72 | 197 | 10.0 | 14.0 | 0.00 | 0.00 | 0.00 | 55 | 1023.3 |
| 20260503173641 | 72 | 163 | 9.0 | 12.0 | 0.00 | 0.00 | 0.00 | 56 | 1023.6 |
| 20260503173138 | 72 | 156 | 7.0 | 13.0 | 0.00 | 0.00 | 0.00 | 54 | 1023.7 |
| 20260503172632 | 72 | 168 | 9.0 | 16.0 | 0.00 | 0.00 | 0.00 | 55 | 1023.8 |
| 20260503172131 | 72 | 149 | 9.0 | 15.0 | 0.00 | 0.00 | 0.00 | 56 | 1023.7 |
| 20260503171630 | 71 | 163 | 10.0 | 15.0 | 0.00 | 0.00 | 0.00 | 57 | 1023.9 |
| 20260503171128 | 71 | 199 | 9.0 | 19.0 | 0.00 | 0.00 | 0.00 | 59 | 1023.9 |
| 20260503170623 | 71 | 190 | 14.0 | 19.0 | 0.00 | 0.00 | 0.00 | 57 | 1023.8 |
| 20260503170133 | 71 | 174 | 10.0 | 16.0 | 0.00 | 0.00 | 0.00 | 59 | 1023.8 |
| 20260503160130 | 67 | 270 | 0.0 | 1.0 | 0.00 | 0.00 | 0.00 | 80 | 1024.6 |
| 20260503150645 | 62 | 306 | 0.0 | 2.0 | 0.00 | 0.00 | 0.00 | 84 | 1024.5 |
| 20260503150136 | 62 | 306 | 0.0 | 2.0 | 0.00 | 0.00 | 0.00 | 84 | 1024.6 |
| 20260503140129 | 57 | 306 | 2.0 | 5.0 | 0.00 | 0.00 | 0.00 | 88 | 1024.3 |
| 20260503131125 | 55 | 10 | 4.0 | 5.0 | 0.00 | 0.01 | 0.00 | 88 | 1024.0 |
| 20260503130628 | 55 | 347 | 4.0 | 5.0 | 0.00 | 0.01 | 0.00 | 89 | 1024.0 |
| 20260503130128 | 55 | 1 | 3.0 | 5.0 | 0.00 | 0.01 | 0.00 | 89 | 1023.9 |
| 20260503120133 | 54 | 15 | 2.0 | 5.0 | 0.00 | 0.01 | 0.00 | 88 | 1023.4 |
| 20260503110611 | 55 | 10 | 4.0 | 5.0 | 0.00 | 0.01 | 0.00 | 87 | 1023.1 |
| 20260503110211 | 55 | 10 | 3.0 | 5.0 | 0.00 | 0.01 | 0.00 | 88 | 1023.0 |
| 20260503100201 | 56 | 352 | 2.0 | 5.0 | 0.00 | 0.01 | 0.00 | 86 | 1022.5 |
| 20260503090158 | 57 | 20 | 2.0 | 5.0 | 0.00 | 0.01 | 0.00 | 85 | 1022.4 |
| 20260503081117 | 58 | 1 | 0.0 | 2.0 | 0.00 | 0.01 | 0.00 | 84 | 1022.6 |
| 20260503080704 | 58 | 1 | 0.0 | 2.0 | 0.00 | 0.01 | 0.00 | 84 | 1022.6 |
| 20260503072156 | 59 | 359 | 1.0 | 4.0 | 0.00 | 0.01 | 0.00 | 83 | 1023.0 |
| 20260503071636 | 59 | 359 | 1.0 | 3.0 | 0.00 | 0.01 | 0.00 | 82 | 1023.0 |
| 20260503071132 | 59 | 2 | 1.0 | 4.0 | 0.00 | 0.01 | 0.00 | 82 | 1023.0 |
| 20260503070711 | 59 | 1 | 1.0 | 4.0 | 0.00 | 0.01 | 0.00 | 82 | 1023.2 |
| 20260503070122 | 59 | 1 | 1.0 | 2.0 | 0.00 | 0.01 | 0.00 | 82 | 1023.2 |
| 20260503060123 | 61 | 1 | 1.0 | 2.0 | 0.00 | 0.01 | 0.00 | 78 | 1023.4 |
| 20260503055112 | 61 | 1 | 0.0 | 2.0 | 0.00 | 0.01 | 0.00 | 77 | 1023.2 |
| 20260503054643 | 62 | 1 | 1.0 | 2.0 | 0.00 | 0.01 | 0.00 | 77 | 1023.4 |
| 20260503054117 | 62 | 1 | 0.0 | 2.0 | 0.00 | 0.01 | 0.00 | 76 | 1023.4 |
| 20260503053630 | 62 | 1 | 0.0 | 1.0 | 0.00 | 0.01 | 0.00 | 76 | 1023.2 |
| 20260503053123 | 62 | 1 | 0.0 | 2.0 | 0.00 | 0.01 | 0.00 | 75 | 1023.2 |
| 20260503052616 | 62 | 1 | 0.0 | 2.0 | 0.00 | 0.01 | 0.00 | 75 | 1023.2 |
| 20260503052128 | 62 | 1 | 0.0 | 2.0 | 0.00 | 0.01 | 0.00 | 75 | 1023.1 |
| 20260503051622 | 62 | 1 | 0.0 | 2.0 | 0.00 | 0.01 | 0.00 | 74 | 1023.2 |
| 20260503051114 | 63 | 1 | 0.0 | 2.0 | 0.00 | 0.01 | 0.00 | 74 | 1023.2 |
| 20260503050628 | 63 | 1 | 0.0 | 4.0 | 0.00 | 0.01 | 0.00 | 74 | 1023.1 |
| 20260503050120 | 63 | 1 | 1.0 | 4.0 | 0.00 | 0.01 | 0.00 | 73 | 1023.0 |
| 20260503045702 | 64 | 1 | 1.0 | 3.0 | 0.00 | 0.01 | 0.01 | 73 | 1023.1 |
| 20260503045159 | 64 | 98 | 0.0 | 0.0 | 0.00 | 0.01 | 0.01 | 73 | 1023.0 |
| 20260503044201 | 64 | 98 | 0.0 | 0.0 | 0.00 | 0.01 | 0.01 | 72 | 1023.0 |
| 20260503043657 | 64 | 98 | 0.0 | 0.0 | 0.00 | 0.01 | 0.01 | 71 | 1023.1 |
| 20260503043200 | 64 | 98 | 0.0 | 0.0 | 0.00 | 0.01 | 0.01 | 70 | 1023.1 |
| 20260503042656 | 64 | 98 | 0.0 | 0.0 | 0.00 | 0.01 | 0.01 | 70 | 1023.2 |
| 20260503041710 | 64 | 98 | 0.0 | 0.0 | 0.00 | 0.01 | 0.01 | 69 | 1023.2 |
| 20260503041208 | 64 | 98 | 0.0 | 0.0 | 0.00 | 0.01 | 0.01 | 69 | 1023.1 |
| 20260503040703 | 64 | 98 | 0.0 | 0.0 | 0.00 | 0.01 | 0.01 | 68 | 1023.0 |
| 20260503040200 | 64 | 98 | 0.0 | 0.0 | 0.00 | 0.01 | 0.01 | 68 | 1022.9 |
| 20260503035205 | 64 | 98 | 0.0 | 0.0 | 0.00 | 0.01 | 0.01 | 66 | 1022.7 |
| 20260503034701 | 64 | 98 | 0.0 | 0.0 | 0.00 | 0.01 | 0.01 | 66 | 1022.8 |
| 20260503034152 | 65 | 98 | 0.0 | 0.0 | 0.00 | 0.01 | 0.01 | 66 | 1022.9 |
| 20260503033648 | 65 | 98 | 0.0 | 1.0 | 0.00 | 0.01 | 0.01 | 66 | 1023.0 |
| 20260503033147 | 65 | 98 | 0.0 | 1.0 | 0.00 | 0.01 | 0.01 | 65 | 1023.0 |
| 20260503032644 | 65 | 98 | 0.0 | 0.0 | 0.00 | 0.01 | 0.01 | 65 | 1023.0 |
| 20260503032136 | 66 | 98 | 0.0 | 0.0 | 0.00 | 0.01 | 0.01 | 65 | 1022.8 |
| 20260503031638 | 66 | 98 | 0.0 | 0.0 | 0.00 | 0.01 | 0.01 | 63 | 1022.8 |
| 20260503030713 | 66 | 98 | 0.0 | 1.0 | 0.00 | 0.01 | 0.01 | 63 | 1022.8 |
| 20260503030145 | 66 | 98 | 0.0 | 2.0 | 0.00 | 0.01 | 0.01 | 62 | 1022.7 |
| 20260503025206 | 66 | 98 | 1.0 | 4.0 | 0.00 | 0.01 | 0.01 | 62 | 1022.4 |
| 20260503024704 | 66 | 98 | 2.0 | 4.0 | 0.00 | 0.01 | 0.01 | 62 | 1022.4 |
| 20260503024212 | 66 | 102 | 2.0 | 4.0 | 0.00 | 0.01 | 0.01 | 62 | 1022.4 |
| 20260503023649 | 66 | 102 | 1.0 | 4.0 | 0.00 | 0.01 | 0.01 | 62 | 1022.5 |